EW8955 Weather Reports


time (UTC)temp
F
wind
direction
speed
knots
gust
knots
rain 1hr
in
rain 24hr
in
rain mn
in
humidity
%
barometer
mb
20260509224428 66 106 4.3 6.1 0.00 0.00 0.32 57 1008.0
20260509223929 66 188 3.5 6.1 0.00 0.00 0.32 57 1008.0
20260509223428 67 223 4.3 8.7 0.00 0.00 0.32 58 1008.0
20260509222929 67 76 2.6 4.3 0.00 0.00 0.32 58 1008.0
20260509222429 67 36 1.7 3.5 0.00 0.00 0.32 59 1008.0
20260509221928 67 97 1.7 2.6 0.00 0.00 0.32 59 1008.0
20260509221429 67 16 1.7 5.2 0.00 0.00 0.32 56 1008.0
20260509220929 67 24 1.7 4.3 0.00 0.00 0.32 58 1008.0
20260509220428 67 174 3.5 7.8 0.00 0.00 0.32 57 1008.0
20260509215928 66 139 3.5 5.2 0.00 0.00 0.32 58 1008.0
20260509215428 66 227 1.7 2.6 0.00 0.00 0.32 60 1008.0
20260509214928 65 228 2.6 4.3 0.00 0.00 0.32 60 1008.0
20260509214428 66 228 1.7 3.5 0.00 0.00 0.32 61 1008.0
20260509213928 66 227 2.6 3.5 0.00 0.00 0.32 61 1008.0
20260509213428 66 228 2.6 3.5 0.00 0.00 0.32 60 1008.0
20260509212429 66 228 4.3 13.0 0.00 0.00 0.32 59 1008.0
20260509211929 66 229 5.2 7.0 0.00 0.00 0.32 62 1008.0
20260509211428 66 228 2.6 5.2 0.00 0.00 0.32 64 1008.0
20260509210928 66 229 2.6 3.5 0.00 0.00 0.32 61 1008.0
20260509210428 66 228 3.5 5.2 0.00 0.00 0.32 64 1008.0
20260509205930 65 227 2.6 3.5 0.00 0.00 0.32 65 1008.0
20260509205428 65 230 3.5 5.2 0.00 0.00 0.32 63 1008.0
20260509204930 65 229 1.7 2.6 0.00 0.00 0.32 65 1008.0
20260509204430 64 228 3.5 6.1 0.00 0.00 0.32 65 1008.0
20260509203930 64 231 1.7 3.5 0.00 0.00 0.32 66 1008.0
20260509203428 65 229 4.3 7.8 0.00 0.00 0.32 65 1008.0
20260509202929 65 228 0.9 1.7 0.00 0.00 0.32 68 1008.0
20260509202428 65 228 3.5 9.6 0.00 0.00 0.32 66 1008.0
20260509201928 65 227 1.7 3.5 0.00 0.00 0.32 67 1008.0
20260509201428 65 228 1.7 3.5 0.00 0.00 0.32 67 1008.0
20260509200929 64 227 1.7 2.6 0.00 0.00 0.32 68 1008.0
20260509200428 64 228 1.7 3.5 0.00 0.00 0.32 68 1009.0
20260509195928 64 228 1.7 3.5 0.00 0.00 0.32 69 1008.0
20260509195429 63 228 2.6 4.3 0.00 0.00 0.32 71 1008.0
20260509194928 63 228 1.7 2.6 0.00 0.00 0.32 72 1008.0
20260509194428 63 228 1.7 3.5 0.00 0.00 0.32 71 1009.0
20260509193928 63 229 1.7 2.6 0.00 0.00 0.32 73 1008.0
20260509193429 63 227 1.7 3.5 0.00 0.00 0.32 76 1009.0
20260509192930 63 227 2.6 4.3 0.00 0.00 0.32 76 1009.0
20260509192428 63 231 2.6 3.5 0.00 0.00 0.32 75 1009.0
20260509191928 63 228 1.7 3.5 0.00 0.00 0.32 75 1009.0
20260509191428 62 229 3.5 3.5 0.00 0.00 0.32 78 1009.0
20260509190928 62 228 2.6 2.6 0.00 0.00 0.32 76 1009.0
20260509190428 62 228 1.7 3.5 0.00 0.00 0.32 77 1009.0
20260509185428 60 229 9.6 29.5 0.00 0.00 0.32 81 1009.0
20260509184929 60 229 24.3 34.8 0.00 0.00 0.32 81 1010.0
20260509184428 60 227 12.2 33.0 0.00 0.00 0.32 82 1010.0
20260509183928 59 226 17.4 32.2 0.00 0.00 0.32 84 1010.0
20260509183429 59 226 18.2 26.1 0.00 0.00 0.32 83 1010.0
20260509182928 59 227 7.0 15.6 0.00 0.00 0.32 84 1010.0
20260509182428 58 226 10.4 20.9 0.00 0.00 0.32 85 1010.0
20260509181930 59 231 30.4 38.2 0.00 0.00 0.32 85 1010.0
20260509181428 58 225 34.8 46.9 0.00 0.00 0.32 86 1010.0
20260509180930 58 227 13.9 22.6 0.00 0.00 0.32 84 1010.0
20260509180428 58 226 31.3 35.6 0.00 0.00 0.32 87 1010.0
20260509175928 58 237 31.3 39.1 0.00 0.00 0.32 86 1010.0
20260509173928 57 227 6.1 12.2 0.00 0.00 0.32 89 1010.0
20260509173429 57 233 10.4 18.2 0.00 0.00 0.32 88 1010.0
20260509172929 57 213 7.0 13.9 0.00 0.00 0.32 90 1010.0
20260509172430 56 44 7.8 16.5 0.00 0.00 0.32 90 1010.0
20260509171930 56 43 8.7 17.4 0.00 0.00 0.32 90 1010.0
20260509171430 56 46 15.6 25.2 0.00 0.00 0.32 91 1009.0
20260509170929 56 45 22.6 37.4 0.00 0.00 0.32 90 1010.0
20260509165929 56 45 9.6 19.1 0.00 0.00 0.32 93 1009.0
20260509165428 55 45 18.2 27.8 0.00 0.00 0.32 94 1009.0
20260509164930 55 43 4.3 10.4 0.00 0.00 0.32 94 1009.0
20260509164430 55 44 14.8 30.4 0.00 0.00 0.32 95 1009.0
20260509163928 55 43 9.6 20.0 0.00 0.00 0.32 95 1009.0
20260509161929 55 229 6.1 7.8 0.00 0.00 0.32 95 1009.0
20260509161429 54 234 4.3 9.6 0.00 0.00 0.32 95 1009.0
20260509160928 54 234 7.0 11.3 0.05 0.00 0.32 96 1009.0
20260509160429 54 239 7.8 13.0 0.02 0.00 0.32 96 1009.0
20260509155930 54 16 7.0 11.3 0.01 0.00 0.32 96 1009.0
20260509155430 53 229 5.2 8.7 0.01 0.00 0.32 96 1009.0
20260509154930 53 138 5.2 13.0 0.00 0.00 0.32 96 1009.0
20260509154428 53 228 4.3 9.6 0.00 0.00 0.32 96 1009.0
20260509153428 53 226 3.5 5.2 0.00 0.00 0.32 97 1009.0
20260509152430 53 225 5.2 17.4 0.01 0.00 0.32 97 1009.0
20260509151932 53 233 4.3 9.6 0.00 0.00 0.32 97 1009.0
20260509151429 53 254 4.3 10.4 0.01 0.00 0.32 97 1009.0
20260509150928 53 227 4.3 12.2 0.02 0.00 0.31 97 1009.0
20260509150429 53 40 3.5 7.8 0.03 0.00 0.31 97 1009.0
20260509145929 52 40 2.6 5.2 0.02 0.00 0.31 97 1009.0
20260509145428 52 330 3.5 9.6 0.02 0.00 0.31 97 1009.0
20260509144929 52 239 2.6 5.2 0.01 0.00 0.30 97 1009.0
20260509144428 52 266 5.2 8.7 0.03 0.00 0.30 97 1009.0
20260509143930 52 17 6.1 11.3 0.05 0.00 0.29 97 1009.0
20260509143428 52 35 4.3 7.8 0.03 0.00 0.29 97 1009.0
20260509142930 52 219 5.2 11.3 0.10 0.00 0.28 97 1009.0
20260509142429 52 34 6.1 9.6 0.05 0.00 0.28 97 1009.0
20260509140429 52 39 3.5 7.8 0.05 0.00 0.26 97 1010.0
20260509135428 52 33 4.3 7.0 0.04 0.00 0.24 96 1010.0
20260509134928 52 251 5.2 13.9 0.15 0.00 0.24 96 1010.0
20260509134428 52 201 4.3 10.4 0.14 0.00 0.23 96 1010.0
20260509133928 52 46 4.3 7.8 0.10 0.00 0.22 96 1010.0
20260509133428 52 250 2.6 4.3 0.18 0.00 0.21 96 1010.0
20260509132930 52 35 1.7 3.5 0.09 0.00 0.20 96 1010.0
20260509132429 52 233 1.7 5.2 0.07 0.00 0.19 96 1010.0
20260509131929 52 43 1.7 2.6 0.13 0.00 0.19 96 1010.0
20260509131428 52 44 2.6 3.5 0.03 0.00 0.19 96 1010.0
20260509130928 52 40 2.6 5.2 0.10 0.00 0.18 96 1010.0
20260509130431 52 31 1.7 2.6 0.08 0.00 0.18 96 1010.0
20260509125928 52 28 1.7 2.6 0.11 0.00 0.17 96 1010.0
20260509125429 52 29 1.7 3.5 0.11 0.00 0.16 96 1010.0
20260509124929 52 2 1.7 5.2 0.11 0.00 0.15 96 1010.0
20260509124429 52 283 0.9 1.7 0.13 0.00 0.14 96 1010.0
20260509123928 52 312 1.7 1.7 0.08 0.00 0.14 95 1010.0
20260509123431 52 209 1.7 1.7 0.11 0.00 0.13 95 1010.0
20260509122928 52 215 1.7 3.5 0.04 0.00 0.12 96 1010.0
20260509122429 51 236 1.7 3.5 0.04 0.00 0.12 96 1010.0
20260509121936 51 223 1.7 2.6 0.06 0.00 0.11 95 1010.0
20260509121429 51 218 3.5 5.2 0.03 0.00 0.11 95 1010.0
20260509120929 51 244 0.9 0.9 0.00 0.00 0.11 95 1010.0
20260509120429 51 158 0.9 1.7 0.01 0.00 0.10 96 1010.0
20260509115929 51 218 0.9 1.7 0.01 0.00 0.10 95 1010.0
20260509115428 51 244 1.7 2.6 0.00 0.00 0.10 95 1010.0
20260509114929 51 227 1.7 1.7 0.00 0.00 0.10 95 1010.0
20260509114428 51 221 1.7 1.7 0.01 0.00 0.10 95 1010.0
20260509113928 51 211 1.7 2.6 0.00 0.00 0.10 95 1010.0
20260509113428 51 229 0.9 0.9 0.00 0.00 0.10 95 1010.0
20260509112928 51 235 1.7 2.6 0.01 0.00 0.10 95 1010.0
20260509112428 51 233 0.9 1.7 0.00 0.00 0.10 95 1010.0
20260509111929 51 205 1.7 2.6 0.00 0.00 0.10 95 1010.0
20260509111430 51 227 2.6 3.5 0.00 0.00 0.10 95 1010.0
20260509110930 51 223 1.7 2.6 0.00 0.00 0.10 95 1010.0
20260509110428 51 227 1.7 1.7 0.00 0.00 0.09 94 1010.0
20260509105929 51 259 1.7 3.5 0.00 0.00 0.09 94 1010.0
20260509104941 51 226 2.6 3.5 0.01 0.00 0.09 94 1010.0
20260509104429 51 230 1.7 2.6 0.02 0.00 0.09 94 1010.0
20260509103928 51 219 3.5 6.1 0.03 0.00 0.08 94 1010.0
20260509103428 51 236 0.9 1.7 0.04 0.00 0.08 94 1010.0
20260509102928 51 225 3.5 7.0 0.02 0.00 0.08 93 1010.0
20260509102428 51 226 2.6 5.2 0.03 0.00 0.07 93 1010.0
20260509101928 51 209 1.7 2.6 0.03 0.00 0.08 94 1010.0
20260509101428 51 230 1.7 3.5 0.06 0.00 0.07 93 1010.0
20260509100928 51 316 1.7 1.7 0.08 0.00 0.07 93 1010.0
20260509100429 51 356 0.9 2.6 0.03 0.00 0.06 93 1010.0
20260509095930 51 257 1.7 1.7 0.06 0.00 0.04 93 1010.0
20260509095429 51 224 1.7 3.5 0.03 0.00 0.04 93 1010.0
20260509094930 51 233 1.7 3.5 0.00 0.00 0.04 92 1010.0
20260509094429 51 227 3.5 5.2 0.01 0.00 0.04 92 1010.0
20260509093928 51 217 1.7 2.6 0.04 0.00 0.03 92 1010.0
20260509093429 51 232 1.7 2.6 0.01 0.00 0.03 92 1010.0
20260509092930 51 216 2.6 3.5 0.00 0.00 0.03 93 1010.0
20260509092428 51 308 1.7 1.7 0.00 0.00 0.03 92 1011.0
20260509091929 51 225 2.6 2.6 0.02 0.00 0.03 92 1011.0
20260509091431 51 226 1.7 1.7 0.04 0.00 0.02 92 1011.0
20260509090929 51 210 0.9 1.7 0.01 0.00 0.02 93 1011.0
20260509090428 51 218 1.7 1.7 0.02 0.00 0.02 93 1011.0
20260509085929 51 210 1.7 1.7 0.00 0.00 0.02 94 1011.0
20260509085428 51 245 1.7 1.7 0.01 0.00 0.02 94 1011.0
20260509084929 51 219 1.7 3.5 0.01 0.00 0.01 96 1010.0
20260509084429 50 230 1.7 3.5 0.03 0.00 0.01 97 1010.0
20260509083929 50 229 3.5 4.3 0.02 0.00 0.01 98 1010.0
20260509083430 49 180 1.7 2.6 0.02 0.00 0.00 99 1010.0
20260509082930 49 206 0.9 1.7 0.00 0.00 0.00 99 1010.0
20260509082429 49 199 0.9 1.7 0.00 0.00 0.00 99 1010.0
20260509081928 49 232 0.9 0.9 0.00 0.00 0.00 99 1010.0
20260509081428 49 225 0.9 1.7 0.00 0.00 0.00 98 1010.0
20260509080930 49 245 0.0 0.9 0.00 0.00 0.00 98 1010.0
20260509080428 49 204 0.9 0.9 0.00 0.00 0.00 99 1010.0
20260509075928 49 280 0.9 1.7 0.00 0.00 0.00 99 1009.0
20260509075428 49 177 1.7 1.7 0.00 0.00 0.00 98 1009.0
20260509074929 49 206 0.0 0.9 0.00 0.00 0.00 98 1009.0
20260509073949 49 140 0.9 0.9 0.00 0.00 0.00 98 1009.0
20260509073429 49 173 0.9 1.7 0.00 0.00 0.00 98 1009.0
20260509072928 49 282 0.9 0.9 0.00 0.00 0.00 98 1009.0
20260509072428 49 280 0.0 0.9 0.00 0.00 0.00 98 1009.0
20260509071928 49 200 0.9 1.7 0.00 0.00 0.00 98 1009.0
20260509071428 49 238 0.9 0.9 0.00 0.00 0.00 98 1009.0
20260509070930 49 201 0.9 0.9 0.00 0.00 0.00 98 1009.0
20260509070429 49 211 0.9 0.9 0.00 0.00 0.00 98 1009.0
20260509065928 49 225 0.9 0.9 0.00 0.00 0.00 98 1009.0
20260509065429 49 229 0.9 0.9 0.00 0.00 0.00 98 1009.0
20260509064929 49 197 0.9 0.9 0.00 0.00 0.00 98 1009.0
20260509064429 49 217 0.0 0.9 0.00 0.00 0.00 98 1009.0
20260509063928 49 164 0.9 0.9 0.00 0.00 0.00 98 1009.0
20260509063428 49 208 0.9 0.9 0.00 0.00 0.00 98 1009.0
20260509062928 49 211 0.9 0.9 0.00 0.00 0.00 98 1009.0
20260509062429 49 254 0.9 0.9 0.00 0.00 0.00 98 1009.0
20260509061930 49 183 0.9 0.9 0.00 0.00 0.00 98 1010.0
20260509061428 49 111 0.9 0.9 0.00 0.00 0.00 97 1010.0
20260509060929 49 200 0.9 1.7 0.00 0.00 0.00 97 1010.0
20260509060428 49 268 0.9 2.6 0.00 0.00 0.00 97 1010.0
20260509055929 49 205 0.9 0.9 0.00 0.00 0.00 97 1010.0
20260509055428 49 217 0.9 0.9 0.00 0.00 0.00 97 1010.0
20260509054928 49 190 0.9 0.9 0.00 0.00 0.00 97 1010.0
20260509054428 49 204 0.9 0.9 0.00 0.00 0.00 97 1010.0
20260509053930 49 206 0.9 1.7 0.00 0.00 0.00 97 1010.0
20260509053428 50 212 0.9 0.9 0.00 0.00 0.00 97 1010.0
20260509052928 50 221 0.9 0.9 0.00 0.00 0.00 97 1010.0
20260509052428 50 196 0.9 0.9 0.00 0.00 0.00 97 1010.0
20260509051928 50 223 0.9 0.9 0.00 0.00 0.00 97 1010.0
20260509051429 50 303 0.0 0.9 0.00 0.00 0.00 97 1010.0
20260509050932 50 215 0.9 1.7 0.00 0.00 0.00 97 1010.0
20260509050429 50 259 0.9 0.9 0.00 0.00 0.00 97 1010.0
20260509045929 50 213 0.9 0.9 0.00 0.00 0.00 97 1010.0
20260509045429 50 266 0.9 0.9 0.00 0.00 0.00 97 1010.0
20260509044928 50 210 1.7 2.6 0.00 0.00 0.00 97 1010.0
20260509044428 50 223 1.7 2.6 0.00 0.00 0.00 97 1010.0
20260509043928 50 182 0.9 0.9 0.00 0.00 0.00 97 1010.0
20260509043428 50 0 0.0 0.0 0.00 0.00 0.00 97 1010.0
20260509042930 50 81 0.9 1.7 0.00 0.00 0.00 97 1011.0
20260509042429 50 177 0.0 0.9 0.00 0.00 0.00 97 1011.0
20260509041930 50 222 0.9 0.9 0.00 0.00 0.00 97 1011.0
20260509041429 50 207 0.9 0.9 0.00 0.00 0.00 97 1011.0
20260509040929 50 210 0.9 0.9 0.00 0.00 0.00 97 1011.0
20260509040428 50 247 0.9 1.7 0.00 0.00 0.00 97 1011.0
20260509035928 50 200 0.0 0.9 0.00 0.00 0.02 96 1011.0
20260509035428 50 202 0.0 0.9 0.00 0.00 0.02 96 1011.0
20260509034928 50 254 0.9 1.7 0.00 0.00 0.02 96 1011.0
20260509034429 50 238 0.0 0.9 0.00 0.00 0.02 96 1011.0
20260509033929 50 198 0.0 0.9 0.00 0.00 0.02 96 1011.0
20260509033428 51 223 0.9 1.7 0.00 0.00 0.02 96 1011.0
20260509032929 51 219 1.7 2.6 0.00 0.00 0.02 96 1011.0
20260509032429 51 203 0.9 0.9 0.00 0.00 0.02 96 1011.0
20260509031929 51 221 1.7 2.6 0.00 0.00 0.02 96 1011.0
20260509031428 51 242 0.9 0.9 0.00 0.00 0.02 95 1011.0
20260509030928 51 228 0.9 0.9 0.00 0.00 0.02 95 1011.0
20260509030430 51 203 0.0 0.9 0.01 0.00 0.02 95 1011.0
20260509025928 51 236 0.9 1.7 0.03 0.00 0.02 95 1012.0
20260509025428 51 204 0.9 0.9 0.00 0.00 0.02 95 1012.0
20260509024929 51 278 1.7 1.7 0.00 0.00 0.02 95 1012.0
20260509024428 51 187 0.9 0.9 0.00 0.00 0.02 95 1012.0
20260509023929 51 220 0.9 1.7 0.00 0.00 0.02 95 1012.0
20260509023429 51 196 1.7 1.7 0.00 0.00 0.02 94 1012.0
20260509022929 51 228 0.9 0.9 0.00 0.00 0.02 94 1012.0
20260509022429 51 217 0.9 0.9 0.00 0.00 0.02 94 1012.0
20260509021928 51 193 0.9 0.9 0.00 0.00 0.02 94 1011.0
20260509021428 51 233 0.0 0.9 0.00 0.00 0.02 93 1011.0
20260509020930 51 213 0.9 0.9 0.00 0.00 0.02 93 1011.0
20260509020428 51 203 0.9 1.7 0.00 0.00 0.02 92 1011.0
20260509015928 51 199 0.0 0.9 0.00 0.00 0.02 92 1011.0
20260509015430 51 218 1.7 1.7 0.00 0.00 0.02 91 1011.0
20260509014928 51 211 1.7 1.7 0.00 0.00 0.02 90 1011.0
20260509014428 51 300 0.9 1.7 0.01 0.00 0.02 89 1011.0
20260509013928 52 203 1.7 1.7 0.01 0.00 0.02 88 1011.0
20260509013429 52 205 0.9 1.7 0.02 0.00 0.02 87 1011.0
20260509012931 52 135 0.9 0.9 0.03 0.00 0.02 86 1011.0
20260509012428 52 203 0.9 1.7 0.02 0.00 0.01 84 1011.0
20260509011929 52 218 0.9 1.7 0.00 0.00 0.01 84 1011.0
20260509011429 52 249 0.9 0.9 0.00 0.00 0.01 84 1011.0
20260509010930 52 206 0.9 1.7 0.00 0.00 0.01 84 1011.0
20260509010428 52 211 0.9 0.9 0.00 0.00 0.01 84 1011.0
20260509005929 52 222 0.9 1.7 0.00 0.00 0.01 84 1011.0
20260509005429 52 210 0.9 0.9 0.00 0.00 0.01 84 1011.0
20260509004929 52 186 0.0 0.9 0.00 0.00 0.01 84 1011.0
20260509004430 52 211 0.9 1.7 0.00 0.00 0.01 83 1011.0
20260509003928 53 224 0.9 1.7 0.00 0.00 0.01 84 1011.0
20260509003428 53 226 0.9 0.9 0.00 0.00 0.01 83 1011.0
20260509002928 53 227 0.9 0.9 0.00 0.00 0.01 83 1011.0
20260509002428 53 226 3.5 4.3 0.00 0.00 0.01 83 1011.0
20260509001928 54 226 1.7 2.6 0.00 0.00 0.01 82 1011.0
20260509001429 54 227 1.7 2.6 0.00 0.00 0.01 80 1011.0
20260509000928 55 227 0.9 1.7 0.00 0.00 0.01 81 1011.0
20260509000428 55 227 1.7 3.5 0.00 0.00 0.01 81 1011.0
20260508235930 55 226 2.6 5.2 0.00 0.00 0.01 79 1011.0
20260508235430 55 227 2.6 5.2 0.00 0.00 0.01 79 1011.0
20260508234930 56 227 2.6 3.5 0.00 0.00 0.01 78 1011.0
20260508234429 56 222 1.7 2.6 0.00 0.00 0.01 75 1011.0
20260508233929 56 217 1.7 1.7 0.00 0.00 0.01 73 1011.0
20260508233428 57 220 1.7 2.6 0.00 0.00 0.01 72 1011.0
20260508232928 57 222 1.7 1.7 0.00 0.00 0.01 70 1011.0
20260508232428 58 225 1.7 2.6 0.00 0.00 0.01 69 1011.0
20260508231928 58 222 3.5 3.5 0.00 0.00 0.01 68 1011.0
20260508231430 58 231 1.7 4.3 0.00 0.00 0.01 62 1011.0
20260508230929 58 211 1.7 1.7 0.00 0.00 0.01 63 1011.0
20260508230430 58 215 1.7 2.6 0.00 0.00 0.01 62 1011.0
20260508225928 58 222 1.7 2.6 0.00 0.00 0.01 62 1011.0
20260508225431 58 226 1.7 5.2 0.00 0.00 0.01 62 1011.0
20260508224929 58 223 1.7 4.3 0.00 0.00 0.01 60 1011.0